Volver al catálogo

CZ-6A DEB

ActivoSSO
NORAD 54546·DEBRIS·🇨🇳 China

Lanzado Nov 11, 2022 desde Taiyuan Satellite Launch Center

Loading…

Próximos Pases (próximas 24 horas)

TLE

ActualizadoSource: Space-Track

Época: Sep 14, 2026, 06:23 UTC

1 54546U 22151KW  26257.26598771  .00000113  00000-0  79537-4 0  9992
2 54546  98.7962 263.4102 0024710  78.0997 282.2946 14.15672411198079

Sigue CZ-6A DEB en tiempo real con AllMySat

Download on the App Store